Wind_Speed
9 9 8 7 7 7 7 7 8 9 9 9 9 10 10 10 10 10 10 10 10 10 10 9 9 9 9 9 9 8 8 8 8 8 9 9 9 9 9 9 10 10 9 8
10 9 9 8 8 8 8 8 9 9 9 9 10 10 10 10 11 11 11 10 11 11 10 9 9 10 10 10 9 8 8 8 8 9 9 9 9 9 9 9 9 9 9 9
10 9 9 9 8 8 9 9 9 9 9 10 10 10 10 10 11 11 11 11 11 11 10 10 10 10 10 10 10 9 9 9 9 9 10 10 10 10 10 10 9 9 9 8
10 10 10 10 10 10 10 9 9 9 10 9 11 11 11 12 12 11 11 12 11 11 11 11 11 11 10 10 10 9 9 9 10 10 10 10 10 11 11 10 10 9 9 8
11 11 11 11 11 11 11 10 10 10 10 11 11 12 11 14 13 12 12 13 12 12 12 12 12 11 11 10 10 10 10 10 10 11 11 11 11 11 11 11 10 10 9 9
13 12 12 12 12 12 12 12 11 11 12 12 12 13 13 14 14 14 14 14 14 13 13 13 13 12 12 11 11 11 11 11 11 12 12 12 12 12 12 11 10 10 9 8
14 14 13 13 13 13 13 13 12 12 12 11 13 14 15 15 15 15 16 15 14 14 14 14 13 13 13 13 12 12 11 12 12 12 12 12 12 12 12 12 11 11 10 9
16 16 15 14 14 14 14 14 12 11 11 12 15 16 16 16 16 16 16 16 16 15 15 14 14 14 13 13 13 12 12 12 12 12 13 13 12 12 12 12 11 11 11 10
15 16 17 15 15 15 15 15 14 14 14 14 16 17 17 17 17 17 17 16 16 15 15 15 15 14 14 14 14 13 13 13 13 13 13 13 12 12 12 12 11 11 11 11
17 18 18 17 16 16 16 16 16 16 15 14 15 17 18 17 17 17 17 16 17 17 16 16 16 15 14 14 14 14 14 14 13 13 13 12 12 12 12 12 12 12 12 12
18 19 18 18 18 17 17 17 18 18 17 15 16 18 18 18 19 18 18 18 18 17 17 17 17 16 15 15 14 14 14 14 14 14 13 13 13 13 13 13 13 13 13 13
19 19 19 19 19 19 18 18 19 19 18 18 19 20 20 20 19 19 20 19 18 18 18 18 18 17 16 16 15 15 15 14 14 14 14 14 14 14 14 14 14 14 14 14
20 20 20 20 21 20 19 19 19 20 20 20 19 21 20 21 20 20 20 20 19 18 18 18 18 18 17 17 16 16 15 15 15 15 15 15 15 15 15 15 15 15 15 16
22 21 21 21 21 21 21 20 20 21 21 21 19 21 22 22 20 20 20 21 20 19 19 19 19 18 18 18 17 17 16 16 16 16 16 16 16 16 16 16 16 17 17 17
23 23 22 22 22 23 23 22 21 22 21 22 20 22 24 23 22 22 22 22 22 21 20 20 19 19 18 18 18 18 17 16 17 17 17 17 17 17 17 17 17 18 18 18
24 24 23 23 22 24 24 23 23 22 22 23 22 23 25 25 23 23 24 23 23 22 21 20 20 19 19 19 19 19 19 18 18 17 17 18 18 18 18 19 19 19 19 19
25 25 25 24 23 25 26 23 23 24 24 24 24 23 24 24 24 24 24 24 24 23 22 21 21 21 20 20 20 20 20 20 19 19 19 19 19 19 19 19 19 20 20 20
26 25 25 25 25 27 24 24 24 25 25 25 25 25 25 25 25 24 24 25 24 23 23 23 22 22 21 21 21 21 20 20 20 20 20 19 20 20 20 20 21 21 21 20
26 26 26 26 27 27 26 25 25 25 26 26 26 25 25 26 25 25 25 25 24 24 23 23 23 23 22 21 22 22 22 21 22 21 21 21 21 21 21 22 22 22 21 21
27 27 27 27 28 28 27 26 25 26 26 26 26 25 26 26 26 25 24 24 24 25 24 23 24 24 23 23 22 23 23 23 22 22 22 22 22 22 22 22 22 23 22 22
28 28 28 28 28 28 27 26 26 27 27 26 25 26 26 26 25 25 24 24 25 25 25 25 25 24 24 24 23 23 24 23 23 23 23 23 22 22 23 23 23 23 23 23
29 28 28 28 29 29 27 27 27 27 27 27 26 26 27 26 25 25 25 25 24 25 25 25 25 25 25 25 24 24 24 24 24 24 24 23 23 23 24 24 24 24 24 24
29 29 29 29 29 28 28 28 27 27 27 27 27 27 27 26 25 25 25 24 24 24 24 24 25 25 25 25 25 25 26 26 26 26 26 25 24 24 25 25 25 25 24 25
29 29 29 30 30 30 29 29 28 28 27 27 26 26 26 25 24 24 25 24 24 24 24 24 25 26 26 26 26 26 26 26 27 27 27 26 26 25 25 26 25 25 25 25
30 30 30 31 30 30 29 30 29 28 27 27 27 27 26 24 24 24 25 25 25 25 25 25 25 26 27 27 27 27 27 27 28 28 27 27 27 27 26 26 26 26 26 26
31 31 31 31 30 30 30 30 29 29 28 28 28 27 27 26 26 26 26 26 26 26 26 26 26 26 26 27 27 28 28 28 28 28 28 27 28 27 27 27 27 27 27 27
Wind_Direction
257 263 268 276 281 278 281 287 293 296 302 306 309 311 311 309 309 311 313 314 315 316 317 316 318 321 320 318 318 318 316 317 321 325 326 325 324 323 319 317 313 311 307 304
259 262 267 272 277 274 277 280 281 288 299 301 306 308 309 310 309 310 311 308 307 310 314 315 315 318 316 316 314 314 312 312 317 320 322 323 324 323 320 318 314 311 310 304
259 261 267 269 271 270 272 279 281 288 294 298 303 304 306 307 307 306 305 305 305 308 310 312 312 311 312 312 314 317 317 312 313 316 319 320 322 323 321 318 315 312 312 310
254 260 266 269 274 275 274 281 287 292 295 302 306 305 306 308 308 306 303 303 305 307 307 307 306 307 309 309 310 311 312 310 311 313 316 318 320 322 321 319 318 314 309 308
256 258 263 269 273 277 280 283 287 291 296 297 302 303 303 303 307 306 304 302 301 303 305 305 305 305 306 305 305 307 309 307 307 309 311 315 317 317 316 314 316 315 308 303
260 261 262 268 271 275 278 280 285 289 293 292 295 297 298 298 304 304 303 301 299 301 303 304 302 300 300 301 301 303 305 305 305 307 309 311 312 313 313 310 309 308 305 303
259 262 264 268 269 270 271 276 281 289 294 296 294 292 291 296 299 300 301 301 299 299 301 301 299 297 296 297 297 299 300 302 302 305 307 308 309 311 314 313 310 305 301 299
262 264 266 266 269 269 270 272 275 276 279 284 286 287 288 295 295 296 297 299 299 297 297 298 297 297 296 295 295 295 296 298 299 301 303 306 307 308 310 312 312 310 304 301
261 265 266 266 267 269 268 267 268 270 271 272 278 283 284 287 290 292 293 294 295 296 295 294 294 295 295 294 293 292 293 295 296 298 302 303 305 306 307 310 310 309 308 306
257 261 264 266 265 265 265 267 267 269 271 274 279 282 281 283 288 292 292 292 294 294 293 293 291 293 294 293 292 291 291 293 294 296 298 300 302 303 304 305 306 306 304 302
257 259 262 263 263 266 265 264 265 268 270 268 269 271 273 279 285 292 293 293 293 291 291 292 291 289 291 291 289 290 290 291 292 293 294 295 298 299 299 299 301 302 302 301
255 259 261 264 265 266 266 266 266 266 267 269 270 272 272 274 280 285 288 290 290 288 288 290 290 289 290 289 288 288 289 289 290 292 292 292 295 297 297 297 298 298 298 298
255 257 260 263 266 267 268 266 267 268 267 268 270 273 275 273 275 280 284 285 286 286 285 286 287 287 287 287 288 287 287 288 289 289 290 291 293 295 295 296 296 296 296 295
256 257 258 259 266 270 271 270 269 268 268 268 270 273 273 272 275 279 280 279 281 284 285 285 284 285 284 283 284 285 285 286 286 286 287 288 291 293 294 296 297 296 295 294
256 258 258 258 260 265 268 270 270 269 269 269 268 269 272 271 274 278 278 277 278 281 282 283 283 282 281 282 282 282 282 283 283 284 284 286 290 293 293 296 297 297 296 294
257 259 261 260 260 263 265 267 269 270 270 271 271 271 274 272 274 277 279 278 277 277 278 279 281 279 279 279 280 279 280 280 280 283 284 284 288 291 293 295 297 297 296 294
258 260 261 262 263 264 265 267 269 270 271 271 272 274 273 273 274 275 278 279 277 276 278 278 278 278 278 277 277 278 280 282 282 283 283 284 286 291 294 296 297 297 296 294
260 260 262 263 264 265 270 270 270 271 271 271 273 276 275 273 273 274 275 277 277 276 277 276 277 277 278 276 276 277 279 283 283 282 281 283 286 289 291 294 296 295 294 293
260 262 263 264 265 267 268 270 271 273 273 272 273 275 275 273 273 274 275 276 275 273 274 274 274 275 277 275 275 276 278 280 281 281 282 284 286 288 290 292 294 294 292 292
260 261 262 263 264 266 270 271 271 274 274 273 274 275 275 274 273 273 273 274 273 272 271 272 272 273 274 274 275 275 277 280 282 283 284 284 285 288 290 292 294 295 293 292
258 260 261 262 264 267 269 271 272 272 274 274 273 274 274 273 274 275 275 273 272 272 272 273 272 272 273 272 273 274 277 279 281 282 284 284 284 287 290 291 294 294 293 292
260 260 260 262 264 266 269 271 271 271 272 272 273 273 273 273 275 275 275 274 273 273 273 273 273 272 271 271 272 273 276 279 280 280 281 284 284 286 288 291 293 293 293 293
259 259 260 261 264 266 267 268 268 269 271 272 273 273 273 273 274 274 273 273 272 272 272 273 273 272 270 269 270 272 274 276 278 279 279 282 284 286 287 289 291 291 291 291
258 258 258 261 263 264 264 266 266 268 270 272 273 272 271 271 273 272 271 271 272 271 272 272 273 273 271 269 271 272 273 275 277 278 279 279 281 284 286 288 289 289 290 290
256 257 259 260 261 261 262 265 267 267 268 271 271 268 267 270 273 272 271 271 272 272 272 273 274 275 273 270 271 272 273 274 277 278 279 279 279 281 284 286 288 288 289 289
254 257 258 258 259 262 264 265 267 268 268 269 269 268 269 271 271 271 271 271 272 272 272 273 275 277 275 272 271 272 273 275 277 278 279 279 279 280 283 285 286 287 287 288
Height
5871 5872 5872 5872 5872 5873 5873 5873 5872 5872 5871 5871 5870 5869 5869 5868 5867 5866 5865 5865 5864 5863 5862 5861 5860 5859 5858 5857 5856 5855 5854 5854 5853 5852 5851 5850 5849 5848 5847 5846 5845 5844 5844 5843
5870 5870 5870 5871 5871 5871 5871 5871 5871 5871 5870 5869 5868 5868 5867 5866 5866 5865 5864 5863 5862 5861 5861 5860 5859 5858 5857 5856 5855 5854 5854 5853 5852 5851 5850 5849 5848 5847 5846 5845 5844 5843 5842 5841
5867 5868 5868 5869 5869 5869 5870 5870 5869 5869 5868 5868 5867 5867 5866 5865 5864 5864 5862 5862 5861 5860 5859 5859 5858 5857 5856 5855 5854 5853 5852 5852 5851 5850 5849 5848 5847 5846 5844 5843 5842 5841 5840 5840
5865 5866 5867 5867 5867 5867 5868 5868 5867 5867 5867 5866 5866 5865 5864 5863 5863 5862 5861 5860 5859 5859 5858 5857 5856 5855 5854 5853 5852 5852 5851 5850 5849 5848 5847 5847 5846 5844 5843 5842 5841 5840 5839 5838
5863 5864 5864 5865 5865 5865 5865 5865 5865 5865 5864 5864 5864 5863 5863 5861 5860 5860 5859 5858 5857 5857 5856 5855 5854 5854 5853 5852 5851 5850 5849 5848 5848 5847 5846 5845 5844 5843 5841 5840 5839 5838 5837 5836
5860 5861 5862 5862 5863 5863 5863 5863 5863 5863 5862 5862 5862 5861 5861 5859 5858 5858 5857 5856 5855 5854 5854 5853 5852 5851 5851 5850 5849 5848 5847 5847 5846 5845 5844 5843 5842 5841 5839 5838 5837 5836 5835 5835
5857 5858 5858 5859 5859 5860 5861 5861 5861 5860 5860 5860 5860 5859 5859 5857 5857 5856 5855 5854 5853 5852 5851 5851 5850 5849 5848 5848 5847 5846 5845 5844 5843 5842 5841 5841 5839 5838 5837 5836 5835 5834 5833 5833
5854 5854 5855 5856 5856 5856 5857 5858 5858 5859 5858 5858 5857 5856 5856 5855 5854 5853 5852 5851 5850 5850 5849 5848 5847 5847 5846 5845 5844 5844 5843 5842 5841 5840 5839 5838 5837 5836 5835 5834 5833 5832 5831 5830
5850 5850 5851 5852 5852 5853 5853 5854 5854 5854 5854 5854 5854 5853 5852 5852 5851 5851 5849 5848 5848 5847 5846 5845 5844 5844 5843 5842 5841 5841 5840 5839 5838 5837 5836 5835 5834 5833 5833 5832 5830 5829 5829 5828
5846 5846 5847 5848 5849 5849 5850 5850 5850 5850 5850 5850 5851 5850 5849 5848 5847 5847 5846 5845 5845 5844 5843 5842 5840 5840 5840 5839 5838 5837 5837 5836 5835 5834 5833 5832 5832 5831 5830 5829 5828 5827 5826 5825
5842 5842 5843 5843 5844 5845 5846 5846 5845 5846 5846 5847 5847 5847 5844 5844 5844 5843 5843 5842 5841 5840 5839 5838 5837 5836 5836 5835 5835 5834 5833 5833 5832 5831 5831 5830 5829 5828 5827 5826 5825 5824 5823 5822
5837 5838 5838 5839 5839 5840 5840 5841 5841 5842 5841 5841 5841 5843 5840 5840 5840 5839 5838 5837 5837 5836 5835 5834 5833 5832 5832 5831 5831 5830 5830 5829 5829 5828 5827 5826 5825 5824 5824 5823 5822 5821 5820 5819
5832 5833 5834 5834 5836 5836 5835 5836 5836 5836 5836 5836 5836 5838 5836 5836 5835 5834 5834 5833 5832 5832 5831 5830 5829 5829 5828 5827 5827 5827 5826 5825 5825 5824 5823 5823 5822 5821 5820 5819 5818 5817 5816 5815
5826 5828 5829 5830 5829 5829 5830 5830 5831 5831 5831 5831 5831 5831 5830 5829 5829 5829 5829 5828 5827 5827 5826 5826 5825 5824 5824 5823 5823 5823 5822 5821 5821 5820 5819 5819 5818 5817 5816 5815 5814 5813 5812 5810
5820 5822 5822 5823 5824 5823 5824 5824 5825 5825 5825 5825 5826 5825 5824 5823 5823 5823 5823 5822 5822 5822 5821 5821 5820 5820 5819 5819 5819 5818 5818 5817 5816 5816 5815 5814 5814 5812 5812 5811 5810 5808 5807 5806
5814 5816 5816 5817 5818 5817 5818 5819 5819 5819 5819 5819 5819 5819 5818 5817 5817 5817 5817 5816 5816 5816 5816 5815 5815 5815 5814 5814 5814 5814 5813 5812 5812 5811 5811 5810 5809 5808 5807 5806 5805 5804 5802 5801
5807 5809 5809 5810 5811 5810 5811 5813 5813 5813 5813 5813 5812 5813 5811 5811 5811 5811 5810 5810 5810 5810 5810 5810 5810 5809 5809 5809 5809 5809 5808 5807 5807 5806 5806 5805 5804 5803 5802 5801 5800 5799 5797 5796
5801 5801 5802 5803 5805 5804 5807 5806 5806 5806 5806 5806 5805 5805 5805 5805 5804 5804 5803 5803 5803 5804 5804 5804 5804 5803 5804 5803 5803 5803 5803 5802 5802 5801 5800 5800 5799 5798 5797 5796 5795 5793 5792 5790
5794 5795 5795 5796 5796 5797 5799 5799 5799 5799 5799 5799 5798 5798 5798 5797 5797 5797 5796 5796 5796 5797 5797 5797 5798 5797 5798 5798 5797 5797 5797 5797 5796 5795 5794 5794 5793 5792 5791 5790 5789 5787 5786 5785
5786 5787 5788 5789 5789 5790 5792 5792 5792 5792 5791 5791 5791 5791 5790 5790 5790 5791 5790 5790 5790 5790 5790 5790 5791 5791 5791 5791 5791 5791 5791 5790 5790 5789 5788 5788 5787 5786 5785 5784 5783 5781 5780 5778
5778 5779 5780 5781 5781 5782 5784 5784 5785 5786 5785 5784 5783 5783 5783 5783 5783 5783 5783 5783 5783 5783 5783 5783 5783 5784 5784 5784 5784 5784 5784 5784 5784 5783 5782 5781 5780 5780 5779 5778 5776 5775 5773 5772
5770 5772 5773 5774 5774 5777 5777 5777 5777 5777 5776 5776 5776 5776 5775 5775 5775 5776 5776 5776 5776 5776 5776 5776 5776 5776 5776 5777 5777 5777 5777 5777 5776 5776 5775 5774 5773 5773 5772 5771 5770 5768 5767 5765
5762 5764 5765 5766 5768 5768 5768 5768 5768 5768 5768 5768 5769 5769 5768 5768 5768 5768 5769 5769 5769 5769 5769 5769 5768 5768 5768 5769 5769 5769 5769 5769 5769 5768 5768 5767 5766 5766 5765 5764 5763 5761 5760 5758
5755 5755 5756 5757 5759 5760 5760 5760 5760 5760 5761 5761 5761 5761 5761 5761 5761 5761 5761 5762 5762 5761 5761 5761 5760 5760 5760 5760 5761 5761 5761 5761 5761 5760 5760 5760 5759 5759 5758 5757 5756 5754 5753 5751
5746 5747 5748 5749 5751 5751 5752 5752 5753 5753 5753 5753 5754 5753 5753 5754 5754 5754 5754 5754 5754 5754 5754 5753 5752 5752 5752 5752 5752 5753 5753 5753 5753 5752 5752 5752 5752 5751 5750 5749 5748 5747 5745 5743
5737 5738 5739 5741 5743 5743 5744 5744 5745 5745 5746 5746 5746 5746 5746 5746 5747 5747 5747 5747 5746 5746 5746 5746 5745 5744 5743 5743 5744 5744 5744 5744 5744 5744 5744 5744 5744 5743 5742 5741 5740 5739 5738 5736